Location: Chatou
(48.8898°N, 2.1586°E)
Time: 00:37:33
(UTC+00:00)

STRAND 1 - Pass Details

Date: 08 December 2023
Orbit: 766 x 778 km, 98.4° (Epoch: 03 March)

Event Time Altitude Azimuth Distance (km) Brightness Sun altitude
Exits shadow 19:39:37 31° 267° (W) 1,337 ? -35.9°
Drops below altitude 10° 19:42:59 10° 231° (SW) 2,307 ? -36.4°
Sets 19:45:26 0° 223° (SW) 3,230 ? -36.8°
